IW2LSY-11 Weather Reports


time (UTC)temp
C
wind
direction
speed
KPH
gust
KPH
rain 1hr
cm
rain 24hr
cm
rain mn
cm
humidity
%
barometer
mb
20260506082013 14 145 0.0 0.0 0.00 0.00 0.00 87 1009.7
20260506081013 13 145 0.0 0.0 0.00 0.00 0.00 88 1009.9
20260506073004 13 145 0.0 0.0 0.00 0.00 0.00 90 1010.6
20260506072004 13 145 0.0 0.0 0.00 0.00 0.00 93 1010.6
20260506071005 13 145 0.0 0.0 0.00 0.00 0.00 94 1010.5
20260506062008 12 145 0.0 0.0 0.00 0.00 0.00 97 1010.9
20260506061008 13 145 0.0 0.0 0.00 0.00 0.00 96 1011.0
20260506051010 12 145 0.0 0.0 0.00 0.00 0.00 95 1010.9
20260506045010 12 145 0.0 0.0 0.00 0.00 0.00 99 1010.7
20260506044010 12 145 0.0 0.0 0.00 0.00 0.00 95 1010.8
20260506043011 12 145 0.0 0.0 0.00 0.00 0.00 10 1010.5
20260506042011 12 145 0.0 0.0 0.00 0.00 0.00 97 1010.5
20260506041011 12 145 0.0 0.0 0.00 0.00 0.00 10 1010.7
20260506040011 11 145 0.0 0.0 0.00 0.00 0.00 10 1010.6
20260506035012 12 145 0.0 0.0 0.00 0.00 0.00 10 1010.7
20260506034013 12 145 0.0 0.0 0.00 0.00 0.00 10 1010.9
20260506033013 12 145 0.0 0.0 0.00 0.00 0.00 10 1011.0
20260506032013 12 145 0.0 0.0 0.00 0.00 0.00 10 1010.9
20260506031013 11 145 0.0 0.0 0.00 0.00 0.00 10 1011.2
20260506030013 12 145 0.0 0.0 0.00 0.00 0.00 95 1011.4
20260506025014 11 145 0.0 0.0 0.00 0.00 0.00 10 1011.5
20260506024015 12 145 0.0 0.0 0.00 0.00 0.00 10 1011.7
20260506023004 12 145 0.0 0.0 0.00 0.00 0.00 10 1011.7
20260506022005 12 145 0.0 0.0 0.00 0.00 0.00 95 1011.9
20260506021005 12 145 0.0 0.0 0.00 0.00 0.00 95 1012.1
20260506020005 12 145 0.0 0.0 0.00 0.00 0.00 94 1012.1
20260506015005 12 145 0.0 0.0 0.00 0.00 0.00 95 1012.0
20260506014005 12 145 0.0 0.0 0.00 0.00 0.00 96 1012.0
20260506013005 12 145 0.0 0.0 0.00 0.00 0.00 97 1011.8
20260506012006 12 145 0.0 0.0 0.00 0.00 0.00 97 1012.3
20260506011006 12 145 0.0 0.0 0.00 0.00 0.00 96 1012.2
20260506010007 12 145 0.0 0.0 0.00 0.00 0.00 95 1012.3
20260506005008 12 145 0.0 0.0 0.00 0.00 0.00 96 1012.5
20260506004008 12 145 0.0 0.0 0.00 0.00 0.00 95 1012.5
20260506003008 12 145 0.0 0.0 0.00 0.00 0.00 94 1012.6
20260506002009 12 145 0.0 0.0 0.00 0.00 0.00 94 1012.6
20260506001007 12 145 0.0 0.0 0.00 0.00 0.00 95 1012.6
20260506000008 12 145 0.0 0.0 0.00 0.00 0.00 93 1012.6
20260505235008 12 145 0.0 0.0 0.00 0.00 0.00 93 1012.7
20260505234009 12 145 0.0 0.0 0.00 0.00 0.00 92 1012.6
20260505233010 12 145 0.0 0.0 0.00 0.00 0.00 92 1012.5
20260505232010 12 145 0.0 0.0 0.00 0.00 0.00 94 1012.7
20260505231009 12 145 0.0 0.0 0.00 0.00 0.00 91 1012.7
20260505230008 12 145 0.0 0.0 0.00 0.00 0.00 97 1012.6
20260505225008 12 180 0.0 0.0 0.00 0.00 0.00 90 1012.7
20260505224009 13 180 0.0 0.0 0.00 0.00 0.00 90 1013.0
20260505223010 12 180 0.0 0.0 0.00 0.00 0.00 93 1013.2
20260505222010 12 180 0.0 0.0 0.00 0.00 0.00 90 1013.2
20260505221010 13 180 0.0 0.0 0.00 0.00 0.00 88 1013.2
20260505220011 12 180 0.0 0.0 0.00 0.00 0.00 91 1013.3
20260505215011 12 180 0.0 0.0 0.00 0.00 0.00 88 1013.4
20260505214012 12 180 0.0 0.0 0.00 0.00 0.00 93 1013.6
20260505213011 12 180 0.0 0.0 0.00 0.00 0.00 93 1013.6
20260505212012 12 180 0.0 0.0 0.00 0.00 0.00 94 1013.6
20260505211012 12 180 0.0 0.0 0.00 0.00 0.00 92 1013.8
20260505210012 12 180 0.0 0.0 0.00 0.00 0.00 90 1013.9
20260505205013 13 180 0.0 0.0 0.00 0.00 0.00 89 1013.8
20260505204013 12 180 0.0 0.0 0.00 0.00 0.00 90 1013.6
20260505203014 12 180 0.0 0.0 0.00 0.00 0.00 92 1013.7
20260505202014 13 180 0.0 0.0 0.00 0.00 0.00 86 1013.7
20260505201014 13 180 0.0 0.0 0.00 0.00 0.00 83 1013.9
20260505200014 13 180 0.0 0.0 0.00 0.00 0.00 85 1013.8
20260505195014 14 180 0.0 0.0 0.00 0.00 0.00 81 1013.7
20260505194014 14 180 0.0 0.0 0.00 0.00 0.00 82 1013.6
20260505193015 15 180 0.0 0.0 0.00 0.00 0.00 77 1013.6
20260505192004 15 180 0.0 0.0 0.00 0.00 0.00 77 1013.5
20260505191005 14 180 0.0 0.0 0.00 0.00 0.00 81 1013.5
20260505190006 14 180 0.0 0.0 0.00 0.00 0.00 79 1013.4
20260505185006 14 180 0.0 0.0 0.00 0.00 0.00 78 1013.3
20260505184006 15 180 0.0 0.0 0.00 0.00 0.00 77 1013.2
20260505183007 15 180 0.0 0.0 0.00 0.00 0.00 74 1013.1
20260505182008 15 180 0.0 0.0 0.00 0.00 0.00 74 1013.0
20260505181009 15 180 0.0 0.0 0.00 0.00 0.00 76 1013.0
20260505180009 15 180 0.0 0.0 0.00 0.00 0.00 74 1012.9
20260505175010 15 180 0.0 0.0 0.00 0.00 0.00 74 1012.9
20260505174010 16 180 0.0 0.0 0.00 0.00 0.00 72 1012.9
20260505173011 16 180 0.0 0.0 0.00 0.00 0.00 69 1012.9
20260505172011 16 180 0.0 0.0 0.00 0.00 0.00 67 1012.8
20260505171011 16 180 0.0 0.0 0.00 0.00 0.00 65 1012.8
20260505170011 16 180 0.0 0.0 0.00 0.00 0.00 65 1012.8
20260505165012 16 180 0.0 0.0 0.00 0.00 0.00 62 1012.8
20260505164013 16 180 0.0 0.0 0.00 0.00 0.00 62 1012.9
20260505163013 16 180 0.0 0.0 0.00 0.00 0.00 61 1013.0
20260505162013 16 180 0.0 0.0 0.00 0.00 0.00 60 1013.0
20260505161013 16 180 0.0 0.0 0.00 0.00 0.00 58 1012.9
20260505153013 17 180 0.0 0.0 0.00 0.00 0.00 52 1013.0
20260505152013 17 180 0.0 0.0 0.00 0.00 0.00 53 1013.1
20260505151014 17 180 0.0 0.0 0.00 0.00 0.00 54 1013.1
20260505125005 16 180 0.0 0.0 0.00 0.00 0.00 59 1013.8
20260505124005 16 180 0.0 0.0 0.00 0.00 0.00 61 1013.8
20260505123006 17 180 0.0 0.0 0.00 0.00 0.00 59 1013.8
20260505122006 17 180 0.0 0.0 0.00 0.00 0.00 57 1013.8
20260505121006 17 180 0.0 0.0 0.00 0.00 0.00 60 1013.9
20260505120007 17 180 0.0 0.0 0.00 0.00 0.00 61 1013.9
20260505115008 16 180 0.0 0.0 0.00 0.00 0.00 67 1014.0
20260505114008 16 180 0.0 0.0 0.00 0.00 0.00 65 1014.0
20260505113008 17 180 0.0 0.0 0.00 0.00 0.00 64 1014.0
20260505112009 17 180 0.0 0.0 0.00 0.00 0.00 65 1014.1
20260505111009 16 180 0.0 0.0 0.00 0.00 0.00 66 1014.1
20260505102011 16 180 0.0 0.0 0.00 0.00 0.00 66 1014.3
20260505101012 16 180 0.0 0.0 0.00 0.00 0.00 66 1014.4
20260505100013 16 180 0.0 0.0 0.00 0.00 0.00 66 1014.3
20260505095014 15 180 0.0 0.0 0.00 0.00 0.00 68 1014.2
20260505094015 15 180 0.0 0.0 0.00 0.00 0.00 68 1014.2
20260505093005 15 180 0.0 0.0 0.00 0.00 0.00 71 1014.1
20260505092005 14 180 0.0 0.0 0.00 0.00 0.00 70 1014.1
20260505091005 13 180 0.0 0.0 0.00 0.00 0.00 73 1014.3
20260505090006 13 180 0.0 0.0 0.00 0.00 0.00 73 1014.3
20260505085006 14 180 0.0 0.0 0.00 0.00 0.00 67 1014.2
20260505084007 13 180 0.0 0.0 0.00 0.00 0.00 71 1014.3
20260505083007 15 180 0.0 0.0 0.00 0.00 0.00 67 1014.2